SES-4

Last updated on Thu Oct 30 2025 00:02:49 GMT+0000 (Coordinated Universal Time)

1 38087U 12007A 25302.35739105 -.00000158 00000+0 00000+0 0 9994 2 38087 0.0168 13.4567 0002204 203.0656 288.0979 1.00272296 49914
UTC large
Height (km)
Speed (km/s)
/
Latitude / Longitude
Inclination (degrees)
Orbital Period (minutes)
Azimuth
Elevation
Range (km)
Doppler Factor

Next 0 passes for location: London (51.5072 / 0.1276)

Sorry there are no passes over London.